Location: Ajisawe
(8.4333°N, 4.3833°E)
Time: 23:51:22
(UTC+00:00)

S-56A Canister/Altair - Pass Details

Date: 22 April 2021
Orbit: 631 x 2501 km, 38.9° (Epoch: 15 May)

Event Time Altitude Azimuth Distance (km) Brightness Sun altitude
Rises 22:17:05 0° 282° (WNW) 5,218 12.1 -60.5°
Reaches altitude 10° 22:25:01 10° 316° (NW) 3,604 11.2 -61.8°
Enters shadow 22:25:27 10° 318° (NW) 3,548 11.2 -61.9°
